Meteo orario Alisivka

Oggi, 20 Ottobre, Martedi

Tempo Temperatura Precipitazioni Vento Pressione Umidità
00:00 +5°C° 0 mm 3 m/s 753 mm Hg 77%
01:00 +5°C° 0 mm 3 m/s 753 mm Hg 77%
02:00 +5°C° 0 mm 2 m/s 754 mm Hg 76%
03:00 +5°C° 0 mm 2 m/s 754 mm Hg 75%
04:00 +4°C° 0 mm 2 m/s 754 mm Hg 74%
05:00 +4°C° 0 mm 2 m/s 754 mm Hg 73%
06:00 +5°C° 0 mm 2 m/s 754 mm Hg 68%
07:00 +6°C° 0 mm 2 m/s 755 mm Hg 64%
08:00 +7°C° 0 mm 2 m/s 755 mm Hg 59%
09:00 +8°C° 0 mm 3 m/s 755 mm Hg 54%
10:00 +8°C° 0 mm 4 m/s 755 mm Hg 49%
11:00 +10°C° 0 mm 5 m/s 755 mm Hg 43%
12:00 +10°C° 0 mm 5 m/s 754 mm Hg 43%
13:00 +10°C° 0 mm 6 m/s 754 mm Hg 42%
14:00 +11°C° 0 mm 6 m/s 754 mm Hg 42%
15:00 +10°C° 0 mm 5 m/s 754 mm Hg 45%
16:00 +9°C° 0 mm 5 m/s 754 mm Hg 49%
17:00 +8°C° 0 mm 4 m/s 754 mm Hg 52%
18:00 +7°C° 0 mm 4 m/s 755 mm Hg 55%
19:00 +8°C° 0 mm 3 m/s 755 mm Hg 58%
20:00 +7°C° 0 mm 3 m/s 755 mm Hg 60%
21:00 +5°C° 0 mm 3 m/s 756 mm Hg 62%
22:00 +5°C° 0 mm 3 m/s 756 mm Hg 64%
23:00 +6°C° 0 mm 2 m/s 756 mm Hg 66%

Domani, 21 Ottobre, Mercoledi

Tempo Temperatura Precipitazioni Vento Pressione Umidità
00:00 +5°C° 0 mm 2 m/s 756 mm Hg 69%
01:00 +5°C° 0 mm 2 m/s 757 mm Hg 71%
02:00 +4°C° 0 mm 2 m/s 757 mm Hg 74%
03:00 +4°C° 0 mm 2 m/s 757 mm Hg 76%
04:00 +4°C° 0 mm 2 m/s 757 mm Hg 78%
05:00 +4°C° 0 mm 2 m/s 757 mm Hg 80%
06:00 +5°C° 0 mm 2 m/s 757 mm Hg 76%
07:00 +5°C° 0 mm 2 m/s 757 mm Hg 73%
08:00 +6°C° 0 mm 2 m/s 758 mm Hg 69%
09:00 +8°C° 0 mm 2 m/s 757 mm Hg 64%
10:00 +9°C° 0 mm 3 m/s 757 mm Hg 58%
11:00 +10°C° 0 mm 3 m/s 757 mm Hg 53%
12:00 +11°C° 0 mm 4 m/s 756 mm Hg 51%
13:00 +11°C° 0 mm 4 m/s 756 mm Hg 49%
14:00 +12°C° 0 mm 4 m/s 755 mm Hg 47%
15:00 +11°C° 0 mm 4 m/s 755 mm Hg 49%
16:00 +11°C° 0 mm 3 m/s 754 mm Hg 51%
17:00 +10°C° 0 mm 3 m/s 754 mm Hg 54%
18:00 +10°C° 0 mm 3 m/s 754 mm Hg 55%
19:00 +10°C° 0 mm 3 m/s 753 mm Hg 56%
20:00 +10°C° 0 mm 4 m/s 753 mm Hg 57%
21:00 +10°C° 0 mm 4 m/s 753 mm Hg 56%
22:00 +9°C° 0 mm 5 m/s 753 mm Hg 56%
23:00 +10°C° 0 mm 6 m/s 752 mm Hg 56%

Dopodomani, 22 Ottobre, Giovedi

Tempo Temperatura Precipitazioni Vento Pressione Umidità
00:00 +9°C° 0 mm 5 m/s 752 mm Hg 61%
01:00 +9°C° 0 mm 5 m/s 752 mm Hg 66%
02:00 +9°C° 0 mm 5 m/s 752 mm Hg 71%
03:00 +8°C° 0 mm 4 m/s 752 mm Hg 75%
04:00 +9°C° 0 mm 3 m/s 752 mm Hg 79%
05:00 +8°C° 0 mm 3 m/s 752 mm Hg 84%
06:00 +9°C° 0 mm 3 m/s 752 mm Hg 81%
07:00 +9°C° 0 mm 3 m/s 752 mm Hg 78%
08:00 +10°C° 0 mm 3 m/s 752 mm Hg 76%
09:00 +11°C° 0 mm 3 m/s 752 mm Hg 67%
10:00 +13°C° 0 mm 3 m/s 752 mm Hg 58%
11:00 +16°C° 0 mm 3 m/s 752 mm Hg 50%
12:00 +16°C° 0 mm 3 m/s 752 mm Hg 47%
13:00 +17°C° 0 mm 3 m/s 752 mm Hg 45%
14:00 +17°C° 0 mm 4 m/s 752 mm Hg 42%
15:00 +16°C° 0 mm 3 m/s 752 mm Hg 45%
16:00 +15°C° 0 mm 2 m/s 751 mm Hg 49%
17:00 +14°C° 0 mm 2 m/s 751 mm Hg 52%
18:00 +13°C° 0 mm 2 m/s 751 mm Hg 53%
19:00 +13°C° 0 mm 2 m/s 752 mm Hg 54%
20:00 +13°C° 0 mm 2 m/s 752 mm Hg 56%
21:00 +12°C° 0 mm 2 m/s 752 mm Hg 57%
22:00 +12°C° 0 mm 2 m/s 752 mm Hg 58%
23:00 +10°C° 0 mm 2 m/s 752 mm Hg 59%

23 Ottobre, Venerdi

Tempo Temperatura Precipitazioni Vento Pressione Umidità
00:00 +10°C° 0 mm 2 m/s 752 mm Hg 59%
01:00 +10°C° 0 mm 3 m/s 752 mm Hg 59%
02:00 +10°C° 0 mm 3 m/s 751 mm Hg 59%
03:00 +10°C° 0 mm 3 m/s 751 mm Hg 58%
04:00 +10°C° 0 mm 3 m/s 751 mm Hg 57%
05:00 +10°C° 0 mm 3 m/s 751 mm Hg 56%
06:00 +11°C° 0 mm 3 m/s 751 mm Hg 54%
07:00 +12°C° 0 mm 3 m/s 751 mm Hg 52%
08:00 +12°C° 0 mm 3 m/s 751 mm Hg 49%
09:00 +14°C° 0 mm 4 m/s 751 mm Hg 46%
10:00 +17°C° 0 mm 4 m/s 751 mm Hg 42%
11:00 +18°C° 0 mm 4 m/s 751 mm Hg 39%
12:00 +18°C° 0 mm 4 m/s 751 mm Hg 44%
13:00 +19°C° 0 mm 5 m/s 750 mm Hg 49%
14:00 +19°C° 0 mm 5 m/s 750 mm Hg 54%
15:00 +18°C° 0 mm 4 m/s 749 mm Hg 59%
16:00 +17°C° 0 mm 4 m/s 749 mm Hg 64%
17:00 +16°C° 0 mm 3 m/s 749 mm Hg 69%
18:00 +15°C° 0 mm 4 m/s 749 mm Hg 70%
19:00 +14°C° 0 mm 5 m/s 748 mm Hg 71%
20:00 +14°C° 0 mm 5 m/s 748 mm Hg 72%
21:00 +14°C° 0 mm 5 m/s 748 mm Hg 73%
22:00 +14°C° 0 mm 6 m/s 747 mm Hg 73%
23:00 +13°C° 0 mm 6 m/s 747 mm Hg 74%

24 Ottobre, Sabato

Tempo Temperatura Precipitazioni Vento Pressione Umidità
00:00 +13°C° 0 mm 6 m/s 747 mm Hg 78%
01:00 +13°C° 0 mm 6 m/s 747 mm Hg 82%
02:00 +11°C° 0 mm 6 m/s 746 mm Hg 87%
03:00 +11°C° 0 mm 6 m/s 746 mm Hg 89%
04:00 +12°C° 0 mm 5 m/s 746 mm Hg 91%
05:00 +12°C° 0 mm 5 m/s 746 mm Hg 94%
06:00 +12°C° 0 mm 5 m/s 746 mm Hg 88%
07:00 +13°C° 0 mm 5 m/s 746 mm Hg 83%
08:00 +13°C° 0 mm 4 m/s 746 mm Hg 77%
09:00 +14°C° 0 mm 4 m/s 747 mm Hg 70%
10:00 +15°C° 0 mm 4 m/s 747 mm Hg 63%
11:00 +17°C° 0 mm 3 m/s 747 mm Hg 55%
12:00 +18°C° 0 mm 4 m/s 747 mm Hg 55%
13:00 +18°C° 0 mm 4 m/s 746 mm Hg 54%
14:00 +18°C° 0 mm 4 m/s 746 mm Hg 54%
15:00 +17°C° 0 mm 3 m/s 746 mm Hg 61%
16:00 +16°C° 0 mm 3 m/s 746 mm Hg 68%
17:00 +13°C° 0 mm 3 m/s 746 mm Hg 75%
18:00 +13°C° 0.2 mm 3 m/s 746 mm Hg 79%
19:00 +13°C° 0.2 mm 2 m/s 746 mm Hg 84%
20:00 +13°C° 0.2 mm 2 m/s 746 mm Hg 88%
21:00 +13°C° 0.4 mm 2 m/s 746 mm Hg 89%
22:00 +12°C° 0.4 mm 3 m/s 746 mm Hg 90%
23:00 +12°C° 0.4 mm 3 m/s 746 mm Hg 90%

25 Ottobre, Domenica

Tempo Temperatura Precipitazioni Vento Pressione Umidità
00:00 +12°C° 0.1 mm 3 m/s 746 mm Hg 91%
01:00 +11°C° 0.1 mm 3 m/s 746 mm Hg 92%
02:00 +11°C° 0.1 mm 3 m/s 745 mm Hg 92%
03:00 +11°C° 0 mm 4 m/s 746 mm Hg 91%
04:00 +10°C° 0 mm 4 m/s 746 mm Hg 89%
05:00 +10°C° 0 mm 4 m/s 746 mm Hg 87%
06:00 +9°C° 0.1 mm 5 m/s 746 mm Hg 83%
07:00 +10°C° 0.1 mm 6 m/s 746 mm Hg 78%
08:00 +10°C° 0.1 mm 6 m/s 746 mm Hg 74%
09:00 +10°C° 0.1 mm 7 m/s 746 mm Hg 69%
10:00 +10°C° 0.1 mm 7 m/s 746 mm Hg 65%
11:00 +10°C° 0.1 mm 8 m/s 746 mm Hg 60%
12:00 +10°C° 0.1 mm 8 m/s 746 mm Hg 58%
13:00 +10°C° 0.1 mm 8 m/s 747 mm Hg 55%
14:00 +11°C° 0.1 mm 8 m/s 747 mm Hg 53%
15:00 +10°C° 0 mm 7 m/s 747 mm Hg 56%
16:00 +9°C° 0 mm 6 m/s 747 mm Hg 59%
17:00 +8°C° 0 mm 6 m/s 748 mm Hg 63%
18:00 +7°C° 0 mm 6 m/s 748 mm Hg 65%
19:00 +7°C° 0 mm 6 m/s 748 mm Hg 67%
20:00 +7°C° 0 mm 5 m/s 748 mm Hg 69%
21:00 +7°C° 0 mm 5 m/s 749 mm Hg 71%
22:00 +7°C° 0 mm 5 m/s 749 mm Hg 73%
23:00 +7°C° 0 mm 5 m/s 749 mm Hg 75%

26 Ottobre, Lunedi

Tempo Temperatura Precipitazioni Vento Pressione Umidità
00:00 +7°C° 0 mm 5 m/s 749 mm Hg 76%
01:00 +6°C° 0 mm 5 m/s 749 mm Hg 78%
02:00 +6°C° 0 mm 5 m/s 749 mm Hg 80%
03:00 +6°C° 0 mm 5 m/s 749 mm Hg 82%
04:00 +6°C° 0 mm 5 m/s 750 mm Hg 83%
05:00 +6°C° 0 mm 5 m/s 750 mm Hg 84%
06:00 +6°C° 0 mm 5 m/s 750 mm Hg 82%
07:00 +6°C° 0 mm 5 m/s 750 mm Hg 80%
08:00 +6°C° 0 mm 5 m/s 751 mm Hg 78%
09:00 +8°C° 0 mm 5 m/s 751 mm Hg 71%
10:00 +9°C° 0 mm 5 m/s 751 mm Hg 64%
11:00 +10°C° 0 mm 5 m/s 751 mm Hg 57%
12:00 +10°C° 0 mm 5 m/s 751 mm Hg 54%
13:00 +10°C° 0 mm 5 m/s 751 mm Hg 52%
14:00 +10°C° 0 mm 5 m/s 751 mm Hg 50%
15:00 +9°C° 0 mm 5 m/s 751 mm Hg 54%
16:00 +8°C° 0 mm 4 m/s 751 mm Hg 58%
17:00 +8°C° 0 mm 3 m/s 751 mm Hg 62%
18:00 +8°C° 0 mm 3 m/s 751 mm Hg 64%
19:00 +8°C° 0 mm 3 m/s 751 mm Hg 66%
20:00 +7°C° 0 mm 3 m/s 751 mm Hg 67%
21:00 +6°C° 0 mm 4 m/s 751 mm Hg 67%
22:00 +6°C° 0 mm 4 m/s 751 mm Hg 67%
23:00 +6°C° 0 mm 5 m/s 751 mm Hg 66%
Mostrare altro

Abbiamo bisogno del tuo consenso

Meteoprog e i nostri fornitori di servizi possono memorizzare e accedere a dati personali come cookie, identificatori di dispositivi o altre tecnologie simili sul tuo dispositivo e possono elaborare tali dati per personalizzare i contenuti e gli annunci, nonché fornire funzionalità dei social media e analizzarne il traffico.

  • Archiviare e/o accedere alle informazioni sul tuo dispositivo

    Cookie, identificatori di dispositivi o altre informazioni possono essere memorizzati o resi accessibili sul tuo dispositivo per le finalità sopra indicate.

  • Annunci e contenuti personalizzati, misurazione di annunci e contenuti, approfondimenti sul pubblico e sviluppo di prodotti

    Gli annunci e i contenuti possono essere personalizzati in base a un profilo. È possibile aggiungere più dati per personalizzare meglio annunci e contenuti. È possibile misurare il rendimento degli annunci e dei contenuti. È possibile ricavare informazioni sul pubblico che ha visto gli annunci e i contenuti. Tali dati possono essere utilizzati per sviluppare o migliorare l'esperienza, i sistemi e il software dell'utente.

Cliccando su “Accetto”, acconsenti all'uso di cookie, identificatori di dispositivo, web beacon o altre tecnologie simili. Puoi modificare le impostazioni nel browser del tuo dispositivo.

Per determinati scopi, è possibile fare affidamento su interessi legali, piuttosto che sul consenso. Puoi approfondire questo argomento consultando la nostra Informativa sulla privacy e sui cookie.